DW5684 Weather Reports


Display with metric or nautical units.
time (UTC)temp
F
wind
direction
speed
MPH
gust
MPH
rain 1hr
in
rain 24hr
in
rain mn
in
humidity
%
barometer
mb
20200707022822 74 159 0.0 0.0 0.00 0.00 0.00 79 1013.5
20200707022317 74 159 0.0 0.0 0.00 0.00 0.00 79 1013.5
20200707021815 74 159 0.0 0.0 0.00 0.00 0.00 79 1013.5
20200707021331 75 159 0.0 0.0 0.00 0.00 0.00 79 1013.5
20200707020825 75 159 0.0 0.0 0.00 0.00 0.00 79 1013.3
20200707020319 76 159 0.0 0.0 0.00 0.00 0.00 79 1013.2
20200707015814 76 159 0.0 0.0 0.00 0.00 0.00 79 1013.3
20200707015330 77 159 0.0 0.0 0.00 0.00 0.00 78 1013.3
20200707014825 77 159 0.0 0.0 0.00 0.00 0.00 77 1013.4
20200707014321 78 159 0.0 0.0 0.00 0.00 0.00 76 1013.4
20200707013820 78 159 0.0 1.0 0.00 0.00 0.00 77 1013.4
20200707013316 79 159 0.0 1.0 0.00 0.00 0.00 76 1013.5
20200707012831 79 159 0.0 0.0 0.00 0.00 0.00 74 1013.6
20200707012325 80 159 0.0 0.0 0.00 0.00 0.00 73 1013.5
20200707011820 81 159 0.0 0.0 0.00 0.00 0.00 72 1013.4
20200707011317 82 159 0.0 0.0 0.00 0.00 0.00 71 1013.4
20200707010831 82 159 0.0 1.0 0.00 0.00 0.00 71 1013.4
20200707010330 83 159 0.0 1.0 0.00 0.00 0.00 71 1013.4
20200707005826 83 101 0.0 1.0 0.00 0.00 0.00 70 1013.4
20200707005323 84 101 0.0 2.0 0.00 0.00 0.00 67 1013.3
20200707004817 85 124 1.0 2.0 0.00 0.00 0.00 65 1013.2
20200707004333 85 117 0.0 1.0 0.00 0.00 0.00 65 1013.3
20200707003828 86 114 0.0 1.0 0.00 0.00 0.00 64 1013.3
20200707003324 87 115 1.0 2.0 0.00 0.00 0.00 62 1013.3
20200707002824 87 233 0.0 2.0 0.00 0.00 0.00 62 1013.2
20200707002320 87 240 0.0 2.0 0.00 0.00 0.00 62 1013.3
20200707001814 87 120 0.0 3.0 0.00 0.00 0.00 61 1013.3
20200707001327 87 160 0.0 3.0 0.00 0.00 0.00 61 1013.2
20200707000823 86 103 2.0 3.0 0.00 0.00 0.00 63 1013.3
20200707000318 87 96 1.0 3.0 0.00 0.00 0.00 61 1013.3
20200706235814 87 101 1.0 2.0 0.00 0.00 0.00 59 1013.3
20200706235327 88 233 1.0 3.0 0.00 0.00 0.00 55 1013.3
20200706234826 88 160 1.0 4.0 0.00 0.00 0.00 54 1013.2
20200706234321 89 149 0.0 2.0 0.00 0.00 0.00 52 1013.3
20200706233817 90 229 0.0 1.0 0.00 0.00 0.00 52 1013.4
20200706233333 91 193 0.0 4.0 0.00 0.00 0.00 52 1013.4
20200706232828 90 125 1.0 4.0 0.00 0.00 0.00 49 1013.4
20200706232323 92 73 1.0 2.0 0.00 0.00 0.00 50 1013.5
20200706231820 92 13 0.0 2.0 0.00 0.00 0.00 53 1013.4
20200706231319 92 309 0.0 2.0 0.00 0.00 0.00 51 1013.3
20200706230815 93 240 0.0 3.0 0.00 0.00 0.00 48 1013.5
20200706230330 93 141 1.0 3.0 0.00 0.00 0.00 49 1013.5
20200706225824 94 110 1.0 2.0 0.00 0.00 0.00 45 1013.5
20200706225320 94 212 0.0 2.0 0.00 0.00 0.00 48 1013.5
20200706224815 93 218 1.0 2.0 0.00 0.00 0.00 47 1013.5
20200706224330 93 180 1.0 3.0 0.00 0.00 0.00 46 1013.6
20200706223830 92 153 2.0 3.0 0.00 0.00 0.00 47 1013.7
20200706223325 91 116 1.0 2.0 0.00 0.00 0.00 52 1013.7
20200706222820 89 150 1.0 2.0 0.00 0.00 0.00 50 1013.6
20200706222315 91 207 0.0 2.0 0.00 0.00 0.00 49 1013.6
20200706221831 91 127 2.0 4.0 0.00 0.00 0.00 47 1013.6
20200706221325 92 105 2.0 4.0 0.00 0.00 0.00 48 1013.6
20200706220820 92 225 1.0 4.0 0.00 0.00 0.00 50 1013.6
20200706220319 91 229 3.0 4.0 0.00 0.00 0.00 48 1013.5
20200706215834 90 43 0.0 4.0 0.00 0.00 0.00 50 1013.5
20200706215329 90 53 1.0 3.0 0.00 0.00 0.00 52 1013.6
20200706214826 90 256 0.0 3.0 0.00 0.00 0.00 56 1013.6
20200706214320 89 211 1.0 3.0 0.00 0.00 0.00 50 1013.7
20200706213816 90 318 1.0 3.0 0.00 0.00 0.00 49 1013.7
20200706213332 92 308 0.0 4.0 0.00 0.00 0.00 49 1013.7
20200706212826 93 252 2.0 6.0 0.00 0.00 0.00 46 1013.7
20200706212326 93 87 1.0 6.0 0.00 0.00 0.00 47 1013.7
20200706211822 93 101 3.0 5.0 0.00 0.00 0.00 48 1013.7
20200706211317 93 13 2.0 4.0 0.00 0.00 0.00 46 1013.7
20200706210832 94 217 0.0 3.0 0.00 0.00 0.00 44 1013.7
20200706210326 92 98 1.0 5.0 0.00 0.00 0.00 49 1013.7
20200706205820 92 105 2.0 6.0 0.00 0.00 0.00 46 1013.8
20200706205316 90 105 1.0 4.0 0.00 0.00 0.00 51 1013.7
20200706204815 89 226 1.0 3.0 0.00 0.00 0.00 53 1013.9
20200706204330 90 301 0.0 3.0 0.00 0.00 0.00 53 1013.9
20200706203825 90 133 0.0 4.0 0.00 0.00 0.00 54 1013.9
20200706203320 91 185 1.0 4.0 0.00 0.00 0.00 50 1013.9
20200706202816 93 269 2.0 3.0 0.00 0.00 0.00 49 1013.8
20200706202332 92 184 0.0 4.0 0.00 0.00 0.00 51 1013.8
20200706201828 91 201 1.0 4.0 0.00 0.00 0.00 50 1013.9
20200706201328 93 211 1.0 4.0 0.00 0.00 0.00 46 1013.9
20200706200823 93 321 2.0 6.0 0.00 0.00 0.00 48 1013.8
20200706200319 92 87 3.0 5.0 0.00 0.00 0.00 46 1013.8
20200706195815 92 120 1.0 8.0 0.00 0.00 0.00 44 1013.9
20200706195330 92 134 3.0 8.0 0.00 0.00 0.00 47 1014.0
20200706194826 92 326 2.0 5.0 0.00 0.00 0.00 47 1013.9
20200706194322 91 27 2.0 5.0 0.00 0.00 0.00 50 1014.0
20200706193821 91 70 2.0 5.0 0.00 0.00 0.00 54 1014.1
20200706193317 90 148 2.0 4.0 0.00 0.00 0.00 47 1014.2
20200706192832 92 89 1.0 5.0 0.00 0.00 0.00 46 1014.3
20200706192328 92 273 1.0 5.0 0.00 0.00 0.00 45 1014.4
20200706191825 92 167 1.0 4.0 0.00 0.00 0.00 44 1014.4
20200706191319 92 326 1.0 6.0 0.00 0.00 0.00 47 1014.5
20200706190815 91 80 2.0 4.0 0.00 0.00 0.00 48 1014.5
20200706190314 90 246 0.0 4.0 0.00 0.00 0.00 51 1014.6
20200706185830 91 53 2.0 5.0 0.00 0.00 0.00 49 1014.7
20200706185325 92 66 3.0 5.0 0.00 0.00 0.00 49 1014.7
20200706184820 92 195 1.0 5.0 0.00 0.00 0.00 47 1014.8
20200706184315 92 51 1.0 6.0 0.00 0.00 0.00 46 1014.8
20200706183831 92 49 2.0 6.0 0.00 0.00 0.00 45 1015.0
20200706183326 93 65 1.0 5.0 0.00 0.00 0.00 48 1015.0
20200706182821 92 115 2.0 5.0 0.00 0.00 0.00 46 1015.1
20200706182319 92 58 2.0 4.0 0.00 0.00 0.00 49 1015.1
20200706181814 92 145 1.0 4.0 0.00 0.00 0.00 50 1015.0
20200706181329 91 82 1.0 5.0 0.00 0.00 0.00 50 1015.2
20200706180824 92 128 2.0 5.0 0.00 0.00 0.00 47 1015.2
20200706180319 92 120 2.0 5.0 0.00 0.00 0.00 49 1015.2
20200706175814 92 207 1.0 5.0 0.00 0.00 0.00 52 1015.3
20200706175328 91 214 2.0 5.0 0.00 0.00 0.00 48 1015.4
20200706174827 91 129 1.0 4.0 0.00 0.00 0.00 51 1015.4
20200706174322 91 241 2.0 4.0 0.00 0.00 0.00 51 1015.5
20200706173817 89 269 1.0 4.0 0.00 0.00 0.00 52 1015.4
20200706173329 91 70 1.0 4.0 0.00 0.00 0.00 52 1015.6
20200706172822 91 79 2.0 5.0 0.00 0.00 0.00 53 1015.5
20200706172318 91 139 1.0 5.0 0.00 0.00 0.00 54 1015.5
20200706171814 90 340 2.0 5.0 0.00 0.00 0.00 53 1015.6
20200706171329 91 222 1.0 5.0 0.00 0.00 0.00 52 1015.5
20200706170827 92 172 1.0 6.0 0.00 0.00 0.00 52 1015.6
20200706170322 91 180 1.0 5.0 0.00 0.00 0.00 56 1015.6
20200706165816 90 133 2.0 4.0 0.00 0.00 0.00 52 1015.6
20200706165331 90 123 1.0 4.0 0.00 0.00 0.00 54 1015.6
20200706164826 89 105 1.0 6.0 0.00 0.00 0.00 53 1015.6
20200706164320 88 70 2.0 6.0 0.00 0.00 0.00 55 1015.6
20200706163816 89 232 1.0 4.0 0.00 0.00 0.00 57 1015.6
20200706163333 88 105 1.0 6.0 0.00 0.00 0.00 56 1015.6
20200706162828 90 227 1.0 6.0 0.00 0.00 0.00 56 1015.5
20200706162323 90 243 1.0 3.0 0.00 0.00 0.00 52 1015.5
20200706161818 90 95 1.0 4.0 0.00 0.00 0.00 57 1015.5
20200706161314 89 297 2.0 4.0 0.00 0.00 0.00 55 1015.5
20200706160828 89 162 1.0 6.0 0.00 0.00 0.00 57 1015.5
20200706160324 88 120 2.0 6.0 0.00 0.00 0.00 54 1015.4
20200706155824 89 92 1.0 3.0 0.00 0.00 0.00 58 1015.4
20200706155319 88 73 2.0 6.0 0.00 0.00 0.00 60 1015.4
20200706154815 88 71 2.0 6.0 0.00 0.00 0.00 59 1015.3
20200706154331 88 91 1.0 4.0 0.00 0.00 0.00 59 1015.4
20200706153824 88 204 1.0 3.0 0.00 0.00 0.00 58 1015.2
20200706153320 88 110 2.0 4.0 0.00 0.00 0.00 59 1015.3
20200706152816 87 132 2.0 5.0 0.00 0.00 0.00 58 1015.3
20200706152315 88 139 1.0 5.0 0.00 0.00 0.00 61 1015.3
20200706151830 87 221 2.0 4.0 0.00 0.00 0.00 63 1015.2
20200706151325 87 278 1.0 3.0 0.00 0.00 0.00 62 1015.2
20200706150820 87 215 1.0 3.0 0.00 0.00 0.00 61 1015.2
20200706150315 87 111 1.0 3.0 0.00 0.00 0.00 64 1015.2
20200706145829 87 243 1.0 3.0 0.00 0.00 0.00 62 1015.2
20200706145324 87 120 1.0 3.0 0.00 0.00 0.00 65 1015.2
20200706144819 86 87 2.0 4.0 0.00 0.00 0.00 65 1015.3
20200706144318 85 320 0.0 3.0 0.00 0.00 0.00 68 1015.3
20200706143814 85 51 1.0 2.0 0.00 0.00 0.00 68 1015.3
20200706143330 85 218 1.0 3.0 0.00 0.00 0.00 68 1015.3
20200706142825 84 61 1.0 3.0 0.00 0.00 0.00 68 1015.4
20200706142320 85 75 1.0 3.0 0.00 0.00 0.00 68 1015.4
20200706141815 85 124 1.0 2.0 0.00 0.00 0.00 71 1015.4
20200706141330 84 280 1.0 5.0 0.00 0.00 0.00 70 1015.3
20200706140830 83 88 1.0 5.0 0.00 0.00 0.00 73 1015.4
20200706140324 83 58 1.0 3.0 0.00 0.00 0.00 74 1015.4
20200706135819 84 37 1.0 3.0 0.00 0.00 0.00 73 1015.3
20200706135314 83 133 2.0 3.0 0.00 0.00 0.00 74 1015.3
20200706134828 83 250 0.0 1.0 0.00 0.00 0.00 76 1015.3
20200706134324 82 169 1.0 1.0 0.00 0.00 0.00 77 1015.2
20200706133820 82 221 1.0 2.0 0.00 0.00 0.00 77 1015.2
20200706133319 81 107 0.0 2.0 0.00 0.00 0.00 78 1015.2
20200706132814 81 75 0.0 2.0 0.00 0.00 0.00 79 1015.1
20200706132328 80 173 1.0 2.0 0.00 0.00 0.00 80 1015.1
20200706131823 80 198 0.0 2.0 0.00 0.00 0.00 80 1015.1
20200706131319 79 118 0.0 2.0 0.00 0.00 0.00 80 1015.0
20200706130815 78 108 1.0 2.0 0.00 0.00 0.00 80 1015.0
20200706130331 78 231 0.0 2.0 0.00 0.00 0.00 77 1015.0
20200706125826 77 200 1.0 2.0 0.00 0.00 0.00 71 1015.1
20200706125325 75 222 0.0 2.0 0.00 0.00 0.00 61 1015.0
20200706124820 74 104 1.0 2.0 0.00 0.00 0.00 56 1015.0
20200706124316 72 108 0.0 3.0 0.00 0.00 0.00 55 1015.0
20200706123831 71 163 0.0 0.0 0.00 0.00 0.00 55 1014.9
20200706123327 71 200 0.0 0.0 0.00 0.00 0.00 56 1014.9
20200706122822 71 205 0.0 0.0 0.00 0.00 0.00 56 1014.7
20200706122317 70 205 0.0 0.0 0.00 0.00 0.00 56 1014.7
20200706121817 69 205 0.0 0.0 0.00 0.00 0.00 57 1014.7
20200706121332 69 205 0.0 0.0 0.00 0.00 0.00 57 1014.8
20200706120827 69 205 0.0 0.0 0.00 0.00 0.00 57 1014.8
20200706120323 68 205 0.0 0.0 0.00 0.00 0.00 57 1014.7
20200706115818 69 205 0.0 0.0 0.00 0.00 0.00 57 1014.6
20200706115333 68 205 0.0 0.0 0.00 0.00 0.00 57 1014.5
20200706114828 68 205 0.0 0.0 0.00 0.00 0.00 57 1014.6
20200706114327 67 205 0.0 0.0 0.00 0.00 0.00 57 1014.5
20200706113824 67 205 0.0 0.0 0.00 0.00 0.00 57 1014.5
20200706113318 67 205 0.0 0.0 0.00 0.00 0.00 58 1014.6
20200706112814 67 205 0.0 0.0 0.00 0.00 0.00 58 1014.5
20200706112330 67 205 0.0 0.0 0.00 0.00 0.00 58 1014.5
20200706111827 67 205 0.0 0.0 0.00 0.00 0.00 58 1014.4
20200706111321 67 205 0.0 0.0 0.00 0.00 0.00 58 1014.4
20200706110820 66 205 0.0 0.0 0.00 0.00 0.00 58 1014.3
20200706110333 67 205 0.0 0.0 0.00 0.00 0.00 58 1014.2
20200706105828 67 205 0.0 0.0 0.00 0.00 0.00 58 1014.2
20200706105324 67 205 0.0 0.0 0.00 0.00 0.00 58 1014.2
20200706104820 67 205 0.0 0.0 0.00 0.00 0.00 58 1014.2
20200706104316 67 205 0.0 0.0 0.00 0.00 0.00 58 1014.2
20200706103830 67 205 0.0 0.0 0.00 0.00 0.00 59 1014.2
20200706103325 67 205 0.0 0.0 0.00 0.00 0.00 59 1014.2
20200706102824 68 205 0.0 0.0 0.00 0.00 0.00 58 1014.1
20200706102318 68 205 0.0 0.0 0.00 0.00 0.00 59 1014.0
20200706101814 68 205 0.0 0.0 0.00 0.00 0.00 59 1013.9
20200706101329 67 205 0.0 0.0 0.00 0.00 0.00 59 1013.9
20200706100824 67 205 0.0 0.0 0.00 0.00 0.00 59 1013.8
20200706100320 67 205 0.0 0.0 0.00 0.00 0.00 59 1013.9
20200706095814 67 205 0.0 0.0 0.00 0.00 0.00 59 1013.9
20200706095333 67 205 0.0 0.0 0.00 0.00 0.00 59 1013.9
20200706094829 67 205 0.0 0.0 0.00 0.00 0.00 59 1013.9
20200706094325 68 205 0.0 0.0 0.00 0.00 0.00 59 1013.9
20200706093822 68 205 0.0 0.0 0.00 0.00 0.00 59 1013.8
20200706093316 68 205 0.0 0.0 0.00 0.00 0.00 59 1013.7
20200706092831 68 205 0.0 0.0 0.00 0.00 0.00 59 1013.7
20200706092326 68 205 0.0 0.0 0.00 0.00 0.00 59 1013.7
20200706091825 68 205 0.0 0.0 0.00 0.00 0.00 59 1013.5
20200706091320 69 205 0.0 0.0 0.00 0.00 0.00 59 1013.4
20200706090815 69 205 0.0 0.0 0.00 0.00 0.00 59 1013.4
20200706090330 69 205 0.0 0.0 0.00 0.00 0.00 59 1013.4
20200706085825 68 205 0.0 0.0 0.00 0.00 0.00 60 1013.3
20200706085320 69 205 0.0 0.0 0.00 0.00 0.00 60 1013.4
20200706084815 69 205 0.0 0.0 0.00 0.00 0.00 60 1013.3
20200706084314 70 205 0.0 0.0 0.00 0.00 0.00 59 1013.3
20200706083829 69 205 0.0 0.0 0.00 0.00 0.00 60 1013.4
20200706083324 69 205 0.0 0.0 0.00 0.00 0.00 60 1013.4
20200706082819 70 205 0.0 0.0 0.00 0.00 0.00 60 1013.5
20200706082314 70 205 0.0 0.0 0.00 0.00 0.00 60 1013.4
20200706081830 70 205 0.0 0.0 0.00 0.00 0.00 60 1013.5
20200706081325 70 205 0.0 0.0 0.00 0.00 0.00 60 1013.5
20200706080818 70 205 0.0 0.0 0.00 0.00 0.00 60 1013.6
20200706080318 70 205 0.0 0.0 0.00 0.00 0.00 60 1013.5
20200706075831 70 205 0.0 0.0 0.00 0.00 0.00 61 1013.6
20200706075328 70 205 0.0 0.0 0.00 0.00 0.00 61 1013.6
20200706074823 70 205 0.0 0.0 0.00 0.00 0.00 61 1013.6
20200706074317 70 205 0.0 0.0 0.00 0.00 0.00 61 1013.7
20200706073832 70 205 0.0 0.0 0.00 0.00 0.00 61 1013.8
20200706073327 70 205 0.0 0.0 0.00 0.00 0.00 61 1013.8
20200706072826 70 205 0.0 0.0 0.00 0.00 0.00 61 1013.9
20200706072320 70 205 0.0 0.0 0.00 0.00 0.00 62 1013.8
20200706071815 70 205 0.0 0.0 0.00 0.00 0.00 62 1013.9
20200706071329 70 205 0.0 0.0 0.00 0.00 0.00 62 1013.8
20200706070824 70 205 0.0 0.0 0.00 0.00 0.00 62 1013.8
20200706070319 71 205 0.0 0.0 0.00 0.00 0.00 62 1013.8
20200706065815 70 205 0.0 0.0 0.00 0.00 0.00 63 1013.9
20200706065314 70 205 0.0 0.0 0.00 0.00 0.00 63 1014.0
20200706064829 70 205 0.0 0.0 0.00 0.00 0.00 63 1013.9
20200706064324 70 205 0.0 0.0 0.00 0.00 0.00 63 1014.0
20200706063819 71 205 0.0 0.0 0.00 0.00 0.00 64 1013.9
20200706063314 71 205 0.0 0.0 0.00 0.00 0.00 64 1013.9
20200706062831 71 205 0.0 0.0 0.00 0.00 0.00 64 1013.8
20200706062325 71 205 0.0 0.0 0.00 0.00 0.00 65 1013.8
20200706061820 71 205 0.0 0.0 0.00 0.00 0.00 65 1013.9
20200706061319 71 205 0.0 0.0 0.00 0.00 0.00 65 1013.9
20200706060814 71 205 0.0 0.0 0.00 0.00 0.00 66 1013.9
20200706060330 71 205 0.0 0.0 0.00 0.00 0.00 66 1013.9
20200706055826 72 205 0.0 0.0 0.00 0.00 0.00 67 1013.8
20200706055321 72 205 0.0 0.0 0.00 0.00 0.00 67 1013.8
20200706054815 72 205 0.0 0.0 0.00 0.00 0.00 68 1013.8
20200706054331 72 205 0.0 0.0 0.00 0.00 0.00 68 1013.9
20200706053830 72 205 0.0 0.0 0.00 0.00 0.00 68 1013.9
20200706053326 72 205 0.0 0.0 0.00 0.00 0.00 68 1013.8
20200706052820 73 205 0.0 0.0 0.00 0.00 0.00 67 1013.9
20200706052316 73 205 0.0 0.0 0.00 0.00 0.00 67 1013.8
20200706051832 73 205 0.0 0.0 0.00 0.00 0.00 67 1013.9
20200706051328 72 205 0.0 0.0 0.00 0.00 0.00 68 1013.9
20200706050824 72 205 0.0 0.0 0.00 0.00 0.00 68 1013.9
20200706050324 72 205 0.0 0.0 0.00 0.00 0.00 68 1014.0
20200706045818 72 205 0.0 0.0 0.00 0.00 0.00 68 1013.9
20200706045332 72 205 0.0 0.0 0.00 0.00 0.00 69 1013.9
20200706044828 72 205 0.0 0.0 0.00 0.00 0.00 69 1013.9
20200706044324 72 205 0.0 0.0 0.00 0.00 0.00 70 1013.9
20200706043819 71 205 0.0 0.0 0.00 0.00 0.00 71 1013.7
20200706043316 72 205 0.0 0.0 0.00 0.00 0.00 71 1013.7
20200706042814 72 205 0.0 0.0 0.00 0.00 0.00 71 1013.7
20200706042330 72 205 0.0 0.0 0.00 0.00 0.00 72 1013.6
20200706041825 72 205 0.0 0.0 0.00 0.00 0.00 74 1013.5
20200706041320 72 205 0.0 0.0 0.00 0.00 0.00 74 1013.5
20200706040814 72 205 0.0 0.0 0.00 0.00 0.00 73 1013.4
20200706040328 72 205 0.0 0.0 0.00 0.00 0.00 73 1013.6
20200706035823 72 205 0.0 0.0 0.00 0.00 0.00 73 1013.5
20200706035319 72 205 0.0 0.0 0.00 0.00 0.00 74 1013.4
20200706034817 72 205 0.0 0.0 0.00 0.00 0.00 73 1013.3
20200706034332 72 205 0.0 0.0 0.00 0.00 0.00 74 1013.4
20200706033827 72 205 0.0 0.0 0.00 0.00 0.00 73 1013.3
20200706033323 72 205 0.0 0.0 0.00 0.00 0.00 73 1013.2
20200706032818 72 205 0.0 0.0 0.00 0.00 0.00 73 1013.2
20200706032314 72 205 0.0 0.0 0.00 0.00 0.00 74 1013.2
20200706031830 72 205 0.0 0.0 0.00 0.00 0.00 75 1013.1
20200706031330 72 205 0.0 0.0 0.00 0.00 0.00 75 1013.1
20200706030824 73 205 0.0 0.0 0.00 0.00 0.00 75 1013.1
20200706030320 72 205 0.0 1.0 0.00 0.00 0.00 76 1013.0
20200706025814 73 205 0.0 0.0 0.00 0.00 0.00 76 1012.9
20200706025330 73 205 0.0 0.0 0.00 0.00 0.00 76 1013.0
20200706024824 73 205 0.0 0.0 0.00 0.00 0.00 76 1013.0
20200706024320 73 205 0.0 0.0 0.00 0.00 0.00 78 1012.9
20200706023819 73 205 0.0 0.0 0.00 0.00 0.00 78 1012.8
20200706023314 74 205 0.0 0.0 0.00 0.00 0.00 78 1012.8